THOR AGENA D R/B, 2825

Orbit data source: Space-Track

THOR AGENA D R/B, 2825 is space debris in LEO originally from a launch on Wed, 31 May 1967 UTC launched from the Air Force Western Test Range (AFWTR). Debris objects in space refer to the collection of defunct objects orbiting the Earth. Examples of debris include non-operational satellites, rocket bodies, and fragments generated from explosions, collisions, or faulty payload assembly.

Loading next visibility...
Identifier
2825, 1967-053B
Orbit
LEO
Country
Flag of USUS
Related business
Manufacturer
LMSC
Mission
Spacecraft
Bus & Motor
AGENA D, Unknown motor
Mass
600 kg wet, 600 kg dry
Launch date (UTC)
1967-05-31 (59 years ago)
Launch vehicle
Unknown
Launch site
Air Force Western Test Range (AFWTR)
Object type
Payload
Rocket body
Debris
Shape & HBR
Unknown
Radar Cross Section
Large (>1 m²)

Expand to show TLE details & history
Last TLE update: 1 day ago

TLE from 1 day ago
0 THOR AGENA D R/B
1 02825U 67053B   26173.44865363  .00000014  00000-0  47622-4 0  9996
2 02825  69.9723  62.2494 0006975 186.7525 173.3488 13.97730698 92832
Epoch: 2026-06-22T10:46Z
TLE epoch observation values (Epoch: 2026-06-22T10:46:03.673Z)
Latitude
-0.00009°
Longitude
-9.90036°
Altitude
909.02 km
Speed
7.395 km/s
True Right ascension
04h 08m 59s
True Declination
0° 00' 00"
Sunlit
Object was in daylight at epoch
Visualization orbit readout
Latitude
Unknown
Longitude
Unknown
Altitude
Unknown
Speed
Unknown
Apparent Right ascension
Unknown
Apparent Declination
Unknown
Sunlit
N/A
Visualization observer readout
Local Sidereal Time
02:25:18
Azimuth
Unknown
Elevation
Unknown
Doppler factor
Unknown
Orbital elements
Apogee altitude
904.785 km
Perigee altitude
894.632 km
Semi-major axis
7,277.845 km
Eccentricity
0.0007
Inclination
69.9723°
RAAN
62.2494°
Arg. of periapsis
186.7525°
True anomaly
173.35805°
Mean anomaly
173.3488°
Eccentric anomaly
173.35343°
Mean motion
3.49574 °/min
Orbital period
102.98 mins
BSTAR
0.000047622
Loading maneuver chart data...
Computing Atmospheric mass density...
Loading historical data...
Loading historical data...
Loading historical data...
Loading historical data...
Loading historical data...
Loading historical data...
Loading historical data...

Documentation

Showing up to 5 results
|